Location: Saint Louis
(38.6272°N, 90.1978°W)
Time: 18:05:39
(UTC-05:00)

ISS - Pass Details

Date: 19 April 2013
Orbit: 401 x 404 km, 51.6° (Epoch: 23 July)

Event Time Altitude Azimuth Distance (km) Brightness Sun altitude
Rises 22:25:10 0° 317° (NW) 2,345 1.8 -28.2°
Reaches altitude 10° 22:27:38 10° 335° (NNW) 1,484 0.4 -28.5°
Enters shadow 22:28:31 14° 348° (NNW) 1,244 -0.2 -28.7°
